BUGSAT 1

Satellite information

Favourite Embed

Satellite Type and Status

PAYLOADIN ORBIT

Key statistics

Satellite BUGSAT 1 at a glance.

Uptime

4199

Days in orbit

Revolutions

≈ 15.1

Per day

Orbit

SSO

Sun Synchronous Orbit

Inclination

98.1

Latest

Satellite identification and parameters

Extended collection of information and parameters for BUGSAT 1.

Object identification

Identified? True

Debris? False

Object name: BUGSAT 1

International designator: 2014-033E

Object number (NORAD): 40014

Object ID (CCSDS): 40014

Country: ARGENTINA (ARGN)

Current information (Y/N): Y

RCS size: MEDIUM

Orbital parameters

Period: 95.154 minutes

Inclination: 98.0567 deg

SMA: 6904.151 km

Apoapsis: 547.109 km

Periapsis: 504.923 km

RAAN: 68.1587 deg

Eccentricy: 0.00305517

Argument of periapsis: 82.6583 deg

Mean anomaly: 277.8117 deg

Mean motion: 15.13342881 rev/day

Mean motion (dot): 0.00004099 rev/day2

B* drag term: 0.00023159958 1/REarth

Two-line elements (TLE)

Creation date: Dec. 17, 2025, 2:25 a.m.

Reference frame: TEME

Reference center: EARTH

Epoch: Dec. 17, 2025, 12:28 a.m. UTC

TLE line 0: 0 BUGSAT 1

TLE line 1: 1 40014U 14033E 25351.01946917 .00004099 00000-0 23160-3 0 9990

TLE line 2: 2 40014 98.0567 68.1587 0030552 82.6583 277.8117 15.13342881628261

Live tracking on map

Real-time ground track for satellite BUGSAT 1.

In-orbit conjunctions

There are no conjunctions computed for BUGSAT 1, at the moment. Check back to stay up to date, as we update our databases every day.

Go to all conjunctions

Associated space launch

BUGSAT 1 was lifted into orbit during the mission ‘Dnepr 1 | Multipayload, 37 satellites.’, on board a Dnepr space rocket.

The launch took place on June 19, 2014, 7:11 p.m. from 370/13.

For more information about the launch, click the button.

Launch to space Dnepr 1 | Multipayload, 37 satellites.
Dnepr 1 | Multipayload, 37 satellites.

Agency: N/A

Status: Launch Successful

Launch date: June 19, 2014, 7:11 p.m. UTC

Rocket: Dnepr

Launch pad: 370/13

Location: Dombarovskiy, Russian Federation

...

Latest news about this satellite

There are no fresh news available about this satellite. Check back as we update our databases every day.


Newsletter sign-up

Weekly statistics, charts and insights to help you stay on top of the space industry.